FW3849 Weather Reports


time (UTC)temp
C
wind
direction
speed
KPH
gust
KPH
rain 1hr
cm
rain 24hr
cm
rain mn
cm
humidity
%
barometer
mb
20240527183510 38 292 3.2 11.3 0.00 0.00 0.00 1 1011.2
20240527183008 38 137 1.6 12.9 0.00 0.00 0.00 1 1011.3
20240527182508 38 140 4.8 12.9 0.00 0.00 0.00 1 1011.3
20240527182007 39 326 3.2 11.3 0.00 0.00 0.00 1 1011.4
20240527181507 39 4 3.2 12.9 0.00 0.00 0.00 1 1011.5
20240527181002 39 25 1.6 9.7 0.00 0.00 0.00 1 1011.6
20240527180501 39 296 4.8 12.9 0.00 0.00 0.00 1 1011.7
20240527180100 39 354 3.2 12.9 0.00 0.00 0.00 1 1011.8
20240527175559 38 356 1.6 12.9 0.00 0.00 0.00 1 1011.8
20240527174557 38 355 6.4 11.3 0.00 0.00 0.00 1 1011.8
20240527174056 38 127 3.2 6.4 0.00 0.00 0.00 1 1011.8
20240527173556 38 16 1.6 8.0 0.00 0.00 0.00 1 1012.0
20240527173059 38 317 3.2 9.7 0.00 0.00 0.00 1 1012.1
20240527172551 38 354 3.2 12.9 0.00 0.00 0.00 1 1012.1
20240527172055 38 308 3.2 12.9 0.00 0.00 0.00 1 1012.1
20240527171549 38 33 3.2 9.7 0.00 0.00 0.00 1 1012.1
20240527171053 37 351 4.8 9.7 0.00 0.00 0.00 1 1012.1
20240527170547 37 360 4.8 11.3 0.00 0.00 0.00 1 1012.1
20240527170045 37 14 1.6 6.4 0.00 0.00 0.00 1 1012.1
20240527165543 36 10 4.8 14.5 0.00 0.00 0.00 2 1012.2
20240527164541 36 345 8.0 14.5 0.00 0.00 0.00 2 1012.1
20240527164040 36 310 4.8 11.3 0.00 0.00 0.00 4 1012.2
20240527163538 36 262 3.2 11.3 0.00 0.00 0.00 5 1012.0
20240527163038 36 358 4.8 11.3 0.00 0.00 0.00 7 1012.1
20240527162536 36 347 3.2 6.4 0.00 0.00 0.00 10 1012.2
20240527162034 36 48 1.6 12.9 0.00 0.00 0.00 10 1012.1
20240527161534 35 85 1.6 4.8 0.00 0.00 0.00 12 1012.2
20240527161031 35 87 3.2 4.8 0.00 0.00 0.00 12 1012.1
20240527160530 34 89 3.2 4.8 0.00 0.00 0.00 17 1012.1
20240527160028 33 89 1.6 6.4 0.00 0.00 0.00 18 1012.1
20240527155526 33 29 1.6 4.8 0.00 0.00 0.00 20 1012.0
20240527154528 32 30 1.6 4.8 0.00 0.00 0.00 21 1012.0
20240527154025 32 30 1.6 6.4 0.00 0.00 0.00 22 1012.1
20240527153523 32 29 3.2 6.4 0.00 0.00 0.00 23 1012.2
20240527153022 32 353 0.0 3.2 0.00 0.00 0.00 24 1012.2
20240527152525 31 353 1.6 4.8 0.00 0.00 0.00 26 1012.1
20240527152021 31 353 1.6 4.8 0.00 0.00 0.00 26 1012.0
20240527151519 31 353 1.6 6.4 0.00 0.00 0.00 25 1011.9
20240527151015 30 351 1.6 6.4 0.00 0.00 0.00 26 1011.9
20240527150513 29 198 0.0 4.8 0.00 0.00 0.00 28 1011.9
20240527150012 28 198 1.6 4.8 0.00 0.00 0.00 27 1012.1
20240527145512 27 200 1.6 6.4 0.00 0.00 0.00 25 1012.0
20240527144511 27 200 3.2 6.4 0.00 0.00 0.00 24 1011.9
20240527144013 27 181 1.6 4.8 0.00 0.00 0.00 24 1011.9
20240527143507 27 181 3.2 4.8 0.00 0.00 0.00 24 1012.0
20240527143006 27 180 1.6 4.8 0.00 0.00 0.00 23 1011.8
20240527142505 27 179 0.0 4.8 0.00 0.00 0.00 21 1011.9
20240527142006 26 179 1.6 4.8 0.00 0.00 0.00 20 1011.9
20240527141503 26 179 1.6 4.8 0.00 0.00 0.00 19 1011.8
20240527141100 25 192 1.6 4.8 0.00 0.00 0.00 19 1011.8
20240527141001 25 192 1.6 4.8 0.00 0.00 0.00 19 1011.8
20240527140600 25 193 0.0 4.8 0.00 0.00 0.00 20 1011.8
20240527140104 24 193 3.2 4.8 0.00 0.00 0.00 20 1011.9
20240527135556 23 267 0.0 4.8 0.00 0.00 0.00 18 1011.6
20240527134555 23 267 0.0 4.8 0.00 0.00 0.00 17 1011.6
20240527134055 23 267 1.6 4.8 0.00 0.00 0.00 16 1011.6
20240527133557 22 267 1.6 4.8 0.00 0.00 0.00 15 1011.6
20240527133051 22 267 1.6 4.8 0.00 0.00 0.00 14 1011.7
20240527132549 22 266 1.6 4.8 0.00 0.00 0.00 15 1011.6
20240527132048 21 266 3.2 4.8 0.00 0.00 0.00 15 1011.4
20240527131550 21 272 1.6 3.2 0.00 0.00 0.00 17 1011.3
20240527131045 21 263 1.6 3.2 0.00 0.00 0.00 16 1011.3
20240527130544 20 263 0.0 1.6 0.00 0.00 0.00 16 1011.4
20240527130043 20 263 0.0 1.6 0.00 0.00 0.00 15 1011.4
20240527125540 19 263 0.0 3.2 0.00 0.00 0.00 16 1011.2
20240527124545 18 264 0.0 3.2 0.00 0.00 0.00 18 1010.9
20240527124040 18 264 1.6 4.8 0.00 0.00 0.00 19 1010.9
20240527123537 18 264 1.6 4.8 0.00 0.00 0.00 18 1010.8
20240527123036 18 264 0.0 3.2 0.00 0.00 0.00 18 1010.6
20240527122535 17 264 0.0 3.2 0.00 0.00 0.00 18 1010.5
20240527122035 17 263 0.0 3.2 0.00 0.00 0.00 18 1010.6
20240527121535 17 264 1.6 3.2 0.00 0.00 0.00 19 1010.6
20240527121031 17 264 0.0 1.6 0.00 0.00 0.00 19 1010.5
20240527120531 17 264 0.0 1.6 0.00 0.00 0.00 19 1010.4
20240527120028 17 264 0.0 3.2 0.00 0.00 0.00 19 1010.3
20240527115526 17 264 0.0 3.2 0.00 0.00 0.00 20 1010.3
20240527114525 17 264 0.0 4.8 0.00 0.00 0.00 19 1010.1
20240527114024 17 264 1.6 4.8 0.00 0.00 0.00 20 1010.0
20240527113521 17 264 0.0 4.8 0.00 0.00 0.00 20 1009.8
20240527113021 17 264 1.6 4.8 0.00 0.00 0.00 20 1010.0
20240527112519 17 264 1.6 4.8 0.00 0.00 0.00 19 1010.0
20240527112018 17 262 0.0 4.8 0.00 0.00 0.00 18 1009.9
20240527111529 17 262 3.2 4.8 0.00 0.00 0.00 18 1009.9
20240527111014 17 262 0.0 6.4 0.00 0.00 0.00 16 1009.8
20240527110513 18 262 3.2 6.4 0.00 0.00 0.00 16 1009.7
20240527110012 18 312 1.6 3.2 0.00 0.00 0.00 15 1009.6
20240527105510 18 312 0.0 4.8 0.00 0.00 0.00 16 1009.4
20240527104510 18 312 0.0 6.4 0.00 0.00 0.00 15 1009.3
20240527104008 18 311 0.0 3.2 0.00 0.00 0.00 15 1009.2
20240527103506 18 311 0.0 3.2 0.00 0.00 0.00 16 1009.2
20240527103008 18 311 0.0 3.2 0.00 0.00 0.00 16 1009.2
20240527102503 18 311 0.0 3.2 0.00 0.00 0.00 16 1009.2
20240527102002 18 311 1.6 3.2 0.00 0.00 0.00 15 1009.2
20240527101503 18 311 0.0 3.2 0.00 0.00 0.00 15 1009.2
20240527101104 18 311 1.6 4.8 0.00 0.00 0.00 15 1009.2
20240527100600 18 311 1.6 4.8 0.00 0.00 0.00 14 1009.1
20240527100056 18 311 0.0 1.6 0.00 0.00 0.00 14 1009.1
20240527095558 18 311 0.0 3.2 0.00 0.00 0.00 13 1009.1
20240527094559 18 311 0.0 1.6 0.00 0.00 0.00 13 1009.1
20240527094052 18 311 0.0 1.6 0.00 0.00 0.00 13 1009.0
20240527093552 18 311 0.0 6.4 0.00 0.00 0.00 13 1009.0
20240527093050 19 311 3.2 6.4 0.00 0.00 0.00 14 1009.1
20240527092549 19 311 1.6 3.2 0.00 0.00 0.00 12 1009.0
20240527092048 19 311 1.6 3.2 0.00 0.00 0.00 12 1008.9
20240527091601 19 311 0.0 3.2 0.00 0.00 0.00 12 1008.9
20240527091045 19 311 1.6 8.0 0.00 0.00 0.00 11 1009.0
20240527090544 19 311 0.0 8.0 0.00 0.00 0.00 11 1009.0
20240527090042 20 159 0.0 4.8 0.00 0.00 0.00 10 1008.9
20240527085540 20 158 0.0 3.2 0.00 0.00 0.00 11 1008.8
20240527084539 20 158 0.0 3.2 0.00 0.00 0.00 11 1008.8
20240527084039 21 158 0.0 3.2 0.00 0.00 0.00 9 1008.9
20240527083536 21 158 1.6 4.8 0.00 0.00 0.00 7 1008.8
20240527083035 22 159 3.2 4.8 0.00 0.00 0.00 6 1008.8
20240527082533 22 159 0.0 6.4 0.00 0.00 0.00 5 1008.8
20240527082032 22 160 3.2 6.4 0.00 0.00 0.00 5 1008.6
20240527081530 22 159 3.2 8.0 0.00 0.00 0.00 4 1008.5
20240527081029 22 156 3.2 8.0 0.00 0.00 0.00 5 1008.5
20240527080528 21 249 3.2 6.4 0.00 0.00 0.00 6 1008.6
20240527080027 21 193 1.6 8.0 0.00 0.00 0.00 6 1008.5
20240527075526 21 212 4.8 16.1 0.00 0.00 0.00 6 1008.5
20240527074527 19 181 4.8 9.7 0.00 0.00 0.00 10 1008.5
20240527074026 19 188 4.8 9.7 0.00 0.00 0.00 12 1008.5
20240527073530 20 197 4.8 9.7 0.00 0.00 0.00 11 1008.6
20240527073022 20 351 0.0 3.2 0.00 0.00 0.00 10 1008.4
20240527072525 20 351 1.6 3.2 0.00 0.00 0.00 9 1008.2
20240527072021 20 351 0.0 3.2 0.00 0.00 0.00 8 1008.3
20240527071521 20 351 0.0 1.6 0.00 0.00 0.00 9 1008.2
20240527071021 20 351 0.0 1.6 0.00 0.00 0.00 10 1008.3
20240527070518 20 351 0.0 1.6 0.00 0.00 0.00 11 1008.4
20240527070020 20 351 0.0 3.2 0.00 0.00 0.00 12 1008.2
20240527065518 20 351 0.0 1.6 0.00 0.00 0.00 9 1008.1
20240527064519 21 351 0.0 3.2 0.00 0.00 0.00 9 1008.1
20240527064015 21 351 0.0 3.2 0.00 0.00 0.00 9 1008.2
20240527063517 21 351 1.6 3.2 0.00 0.00 0.00 10 1008.1
20240527063016 21 351 0.0 3.2 0.00 0.00 0.00 13 1008.1
20240527062514 21 351 0.0 1.6 0.00 0.00 0.00 12 1008.1
20240527062014 21 351 0.0 3.2 0.00 0.00 0.00 12 1008.0
20240527061535 21 351 0.0 3.2 0.00 0.00 0.00 12 1008.1
20240527061012 21 351 0.0 4.8 0.00 0.00 0.00 12 1008.1
20240527060512 21 351 1.6 4.8 0.00 0.00 0.00 11 1008.1
20240527060014 22 351 1.6 4.8 0.00 0.00 0.00 12 1008.1
20240527055509 22 351 1.6 3.2 0.00 0.00 0.00 11 1008.0
20240527054509 22 351 1.6 3.2 0.00 0.00 0.00 10 1008.1
20240527054014 22 351 1.6 3.2 0.00 0.00 0.00 9 1008.1
20240527053508 22 351 0.0 1.6 0.00 0.00 0.00 10 1008.1
20240527053007 23 351 0.0 1.6 0.00 0.00 0.00 10 1008.1
20240527052507 23 351 0.0 3.2 0.00 0.00 0.00 9 1008.1
20240527052004 23 351 0.0 3.2 0.00 0.00 0.00 9 1008.0
20240527051504 23 351 0.0 0.0 0.00 0.00 0.00 9 1008.0
20240527051003 23 351 0.0 3.2 0.00 0.00 0.00 9 1007.9
20240527050502 23 351 0.0 4.8 0.00 0.00 0.00 10 1007.9
20240527050101 23 351 1.6 4.8 0.00 0.00 0.00 9 1007.9
20240527050001 23 351 1.6 4.8 0.00 0.00 0.00 9 1007.8
20240527045559 23 351 3.2 4.8 0.00 0.00 0.00 9 1007.9
20240527045200 23 351 1.6 4.8 0.00 0.00 0.00 10 1007.7
20240527044558 23 351 1.6 3.2 0.00 0.00 0.00 10 1007.6
20240527044056 24 351 1.6 3.2 0.00 0.00 0.00 9 1007.7
20240527043554 24 351 1.6 3.2 0.00 0.00 0.00 9 1007.6
20240527043053 25 351 0.0 3.2 0.00 0.00 0.00 8 1007.5
20240527042552 25 351 0.0 3.2 0.00 0.00 0.00 8 1007.6
20240527042050 25 351 1.6 3.2 0.00 0.00 0.00 8 1007.6
20240527041549 25 351 1.6 3.2 0.00 0.00 0.00 7 1007.6
20240527041050 25 351 0.0 1.6 0.00 0.00 0.00 7 1007.5
20240527040546 26 351 0.0 3.2 0.00 0.00 0.00 6 1007.5
20240527040046 26 351 1.6 3.2 0.00 0.00 0.00 5 1007.3
20240527035543 26 351 0.0 3.2 0.00 0.00 0.00 5 1007.2
20240527034542 26 351 0.0 1.6 0.00 0.00 0.00 4 1006.9
20240527034042 26 351 0.0 1.6 0.00 0.00 0.00 4 1006.9
20240527033541 27 351 0.0 1.6 0.00 0.00 0.00 4 1006.6
20240527033041 27 351 0.0 3.2 0.00 0.00 0.00 3 1006.6
20240527032541 27 351 0.0 4.8 0.00 0.00 0.00 3 1006.5
20240527032040 27 351 0.0 4.8 0.00 0.00 0.00 2 1006.4
20240527031544 27 351 1.6 4.8 0.00 0.00 0.00 3 1006.4
20240527031037 27 351 1.6 4.8 0.00 0.00 0.00 3 1006.4
20240527030536 28 351 0.0 3.2 0.00 0.00 0.00 2 1006.3
20240527030035 28 351 1.6 3.2 0.00 0.00 0.00 2 1006.2
20240527025532 29 351 0.0 4.8 0.00 0.00 0.00 1 1006.2
20240527025032 30 351 1.6 4.8 0.00 0.00 0.00 1 1006.0
20240527024537 30 351 1.6 3.2 0.00 0.00 0.00 1 1005.9
20240527024031 31 351 0.0 0.0 0.00 0.00 0.00 1 1005.8
20240527023527 31 351 0.0 0.0 0.00 0.00 0.00 1 1005.8
20240527023026 31 351 0.0 1.6 0.00 0.00 0.00 1 1005.8
20240527022525 31 351 0.0 1.6 0.00 0.00 0.00 1 1005.7
20240527022124 32 351 0.0 1.6 0.00 0.00 0.00 1 1005.7
20240527021523 32 351 0.0 1.6 0.00 0.00 0.00 1 1005.6
20240527021027 32 351 0.0 1.6 0.00 0.00 0.00 1 1005.4
20240527020522 33 351 0.0 1.6 0.00 0.00 0.00 1 1005.4
20240527020021 33 351 0.0 3.2 0.00 0.00 0.00 1 1005.4
20240527015520 33 351 0.0 3.2 0.00 0.00 0.00 1 1005.4
20240527015018 34 351 0.0 4.8 0.00 0.00 0.00 1 1005.4
20240527014517 35 351 1.6 4.8 0.00 0.00 0.00 1 1005.2
20240527014016 35 351 1.6 6.4 0.00 0.00 0.00 1 1005.2
20240527013514 35 351 1.6 9.7 0.00 0.00 0.00 1 1005.1
20240527013029 35 349 3.2 9.7 0.00 0.00 0.00 1 1005.0
20240527012511 36 350 1.6 9.7 0.00 0.00 0.00 1 1005.0
20240527012111 36 351 3.2 12.9 0.00 0.00 0.00 1 1004.9
20240527011518 36 8 6.4 12.9 0.00 0.00 0.00 1 1004.9
20240527011007 37 335 4.8 12.9 0.00 0.00 0.00 1 1004.9
20240527010507 37 331 6.4 12.9 0.00 0.00 0.00 1 1004.7
20240527010006 37 342 4.8 16.1 0.00 0.00 0.00 1 1004.7
20240527005504 37 14 6.4 16.1 0.00 0.00 0.00 1 1004.7
20240527005003 37 13 6.4 19.3 0.00 0.00 0.00 1 1004.6
20240527004600 37 335 8.0 19.3 0.00 0.00 0.00 1 1004.6
20240527004500 38 8 6.4 14.5 0.00 0.00 0.00 1 1004.6
20240527004100 38 357 6.4 14.5 0.00 0.00 0.00 1 1004.5
20240527003600 38 331 4.8 14.5 0.00 0.00 0.00 1 1004.5
20240527003059 38 338 4.8 16.1 0.00 0.00 0.00 1 1004.5
20240527002559 38 321 9.7 16.1 0.00 0.00 0.00 1 1004.4
20240527002100 38 346 6.4 22.5 0.00 0.00 0.00 1 1004.4
20240527001611 38 318 4.8 22.5 0.00 0.00 0.00 1 1004.4
20240527001102 38 335 6.4 14.5 0.00 0.00 0.00 1 1004.4
20240527000557 38 351 6.4 12.9 0.00 0.00 0.00 1 1004.4
20240527000058 38 337 4.8 14.5 0.00 0.00 0.00 1 1004.5
20240526235553 38 300 6.4 17.7 0.00 0.00 0.00 1 1004.4
20240526235052 38 304 9.7 17.7 0.00 0.00 0.00 1 1004.4
20240526234551 38 307 6.4 12.9 0.00 0.00 0.00 1 1004.3
20240526234049 38 335 4.8 14.5 0.00 0.00 0.00 1 1004.4
20240526233547 38 317 6.4 14.5 0.00 0.00 0.00 1 1004.4
20240526233049 38 315 4.8 12.9 0.00 0.00 0.00 1 1004.5
20240526232545 38 308 6.4 12.9 0.00 0.00 0.00 1 1004.6
20240526232044 38 339 9.7 16.1 0.00 0.00 0.00 1 1004.4
20240526231601 38 9 9.7 16.1 0.00 0.00 0.00 1 1004.6
20240526231041 38 323 6.4 16.1 0.00 0.00 0.00 1 1004.5
20240526230542 38 320 6.4 19.3 0.00 0.00 0.00 1 1004.4
20240526230053 38 341 11.3 19.3 0.00 0.00 0.00 1 1004.6
20240526225537 38 337 6.4 12.9 0.00 0.00 0.00 1 1004.5
20240526225035 38 320 6.4 25.7 0.00 0.00 0.00 1 1004.6
20240526224534 38 303 9.7 25.7 0.00 0.00 0.00 1 1004.6
20240526224032 38 303 9.7 29.0 0.00 0.00 0.00 1 1004.7
20240526223534 38 323 14.5 32.2 0.00 0.00 0.00 1 1004.6
20240526223030 38 312 12.9 32.2 0.00 0.00 0.00 1 1004.6
20240526222531 38 354 17.7 32.2 0.00 0.00 0.00 1 1004.6
20240526222127 38 317 16.1 35.4 0.00 0.00 0.00 1 1004.6
20240526221528 38 299 17.7 35.4 0.00 0.00 0.00 1 1004.7
20240526221026 38 327 14.5 27.4 0.00 0.00 0.00 1 1004.6
20240526220524 38 350 11.3 30.6 0.00 0.00 0.00 1 1004.9
20240526220024 38 349 16.1 30.6 0.00 0.00 0.00 1 1004.8
20240526215522 38 347 14.5 30.6 0.00 0.00 0.00 1 1004.9
20240526215020 38 342 8.0 25.7 0.00 0.00 0.00 1 1004.9
20240526214519 38 332 11.3 25.7 0.00 0.00 0.00 1 1004.9
20240526214018 38 313 9.7 32.2 0.00 0.00 0.00 1 1004.9
20240526213516 38 6 11.3 32.2 0.00 0.00 0.00 1 1005.1
20240526213019 38 344 16.1 32.2 0.00 0.00 0.00 1 1005.1
20240526212514 38 339 14.5 29.0 0.00 0.00 0.00 1 1005.1
20240526212012 38 314 14.5 24.1 0.00 0.00 0.00 1 1005.2
20240526211512 38 347 12.9 24.1 0.00 0.00 0.00 1 1005.2
20240526211011 38 327 9.7 22.5 0.00 0.00 0.00 1 1005.2
20240526210509 37 316 9.7 22.5 0.00 0.00 0.00 1 1005.5
20240526210010 37 345 9.7 27.4 0.00 0.00 0.00 1 1005.5
20240526205511 37 338 12.9 27.4 0.00 0.00 0.00 1 1005.3
20240526205006 37 327 11.3 30.6 0.00 0.00 0.00 1 1005.4
20240526204503 37 340 12.9 32.2 0.00 0.00 0.00 1 1005.4
20240526204002 37 316 16.1 35.4 0.00 0.00 0.00 1 1005.6
20240526203503 37 337 12.9 35.4 0.00 0.00 0.00 1 1005.7
20240526203100 38 328 14.5 29.0 0.00 0.00 0.00 1 1005.7
20240526202557 37 24 9.7 27.4 0.00 0.00 0.00 1 1005.7
20240526202056 37 360 14.5 30.6 0.00 0.00 0.00 1 1005.8
20240526201054 37 333 9.7 22.5 0.00 0.00 0.00 1 1005.9
20240526200552 37 316 11.3 22.5 0.00 0.00 0.00 1 1006.1
20240526200100 37 343 11.3 30.6 0.00 0.00 0.00 1 1005.9
20240526195550 37 338 14.5 30.6 0.00 0.00 0.00 1 1006.1
20240526195048 37 335 12.9 27.4 0.00 0.00 0.00 1 1006.1
20240526194554 37 339 9.7 30.6 0.00 0.00 0.00 1 1006.2
20240526194045 37 339 14.5 30.6 0.00 0.00 0.00 1 1006.3
20240526193544 37 341 9.7 20.9 0.00 0.00 0.00 1 1006.5
20240526193043 37 348 11.3 30.6 0.00 0.00 0.00 1 1006.5
20240526192542 37 303 16.1 30.6 0.00 0.00 0.00 1 1006.5
20240526192044 36 3 12.9 27.4 0.00 0.00 0.00 1 1006.4
20240526191039 36 343 17.7 27.4 0.00 0.00 0.00 1 1006.7
20240526190537 36 316 11.3 22.5 0.00 0.00 0.00 1 1006.7
20240526190047 36 343 12.9 30.6 0.00 0.00 0.00 1 1006.8
20240526185535 36 323 14.5 30.6 0.00 0.00 0.00 1 1007.0
20240526185034 36 264 11.3 29.0 0.00 0.00 0.00 1 1006.8
20240526184533 36 304 9.7 24.1 0.00 0.00 0.00 1 1006.7
20240526184031 36 10 11.3 30.6 0.00 0.00 0.00 1 1006.8